TimeCDT,TemperatureF,Dew PointF,Humidity,Sea Level PressureIn,VisibilityMPH,Wind Direction,Wind SpeedMPH,Gust SpeedMPH,PrecipitationIn,Events,Conditions,WindDirDegrees,DateUTC
12:52 AM,37.9,30.9,76,30.37,10.0,NNW,6.9,-,N/A,,Mostly Cloudy,340,2012-10-07 05:52:00
1:52 AM,36.0,30.9,82,30.37,10.0,NW,5.8,-,N/A,,Clear,320,2012-10-07 06:52:00
2:52 AM,34.0,30.0,85,30.38,10.0,NNW,5.8,-,N/A,,Clear,330,2012-10-07 07:52:00
3:52 AM,30.9,28.0,89,30.37,10.0,NNW,4.6,-,N/A,,Clear,340,2012-10-07 08:52:00
4:52 AM,30.9,28.0,89,30.36,10.0,WNW,5.8,-,N/A,,Clear,290,2012-10-07 09:52:00
5:52 AM,30.0,28.0,92,30.36,8.0,Calm,Calm,-,N/A,,Clear,0,2012-10-07 10:52:00
6:52 AM,27.0,25.0,92,30.37,7.0,NNW,4.6,-,N/A,,Clear,340,2012-10-07 11:52:00
7:52 AM,28.9,27.0,92,30.36,10.0,NW,3.5,-,N/A,,Clear,310,2012-10-07 12:52:00
8:52 AM,33.1,30.0,89,30.36,9.0,Calm,Calm,-,N/A,,Clear,0,2012-10-07 13:52:00
9:52 AM,42.1,34.0,73,30.35,10.0,Calm,Calm,-,N/A,,Clear,0,2012-10-07 14:52:00
10:52 AM,46.0,30.9,56,30.34,10.0,NE,3.5,-,N/A,,Clear,40,2012-10-07 15:52:00
11:52 AM,48.9,28.0,44,30.32,10.0,West,4.6,-,N/A,,Clear,260,2012-10-07 16:52:00
12:52 PM,51.1,27.0,39,30.30,10.0,WSW,6.9,-,N/A,,Clear,250,2012-10-07 17:52:00
1:52 PM,53.1,27.0,37,30.27,10.0,WSW,9.2,17.3,N/A,,Mostly Cloudy,240,2012-10-07 18:52:00
2:52 PM,52.0,28.0,40,30.24,10.0,WSW,8.1,-,N/A,,Scattered Clouds,250,2012-10-07 19:52:00
3:52 PM,54.0,28.0,37,30.21,10.0,West,9.2,18.4,N/A,,Clear,260,2012-10-07 20:52:00
4:52 PM,55.0,28.9,37,30.19,10.0,West,12.7,16.1,N/A,,Scattered Clouds,260,2012-10-07 21:52:00
5:52 PM,53.1,28.9,40,30.18,10.0,West,9.2,-,N/A,,Scattered Clouds,270,2012-10-07 22:52:00
6:52 PM,50.0,28.9,44,30.18,10.0,West,9.2,-,N/A,,Scattered Clouds,260,2012-10-07 23:52:00
7:52 PM,46.9,28.9,50,30.18,10.0,SW,3.5,-,N/A,,Clear,230,2012-10-08 00:52:00
8:52 PM,42.1,30.0,62,30.19,10.0,SSW,5.8,-,N/A,,Scattered Clouds,210,2012-10-08 01:52:00
9:52 PM,44.1,30.9,60,30.17,10.0,South,4.6,-,N/A,,Overcast,190,2012-10-08 02:52:00
10:52 PM,41.0,28.9,62,30.16,10.0,Calm,Calm,-,N/A,,Clear,0,2012-10-08 03:52:00
11:52 PM,37.0,28.0,70,30.16,10.0,South,3.5,-,N/A,,Clear,180,2012-10-08 04:52:00